Location: Vale
(35.4830°N, 81.3830°W)
Time: 18:55:29
(UTC-04:00)

Amateur Radio Satellites - All Passes

Search period start: 24 September 2017 18:25
Search period end: 25 September 2017 18:25
Location: Vale, 35.4830°N, 81.3830°W

Satellite Date Start Highest point End Downlink Frequencies (MHz)
Time Altitude Azimuth
NUDT-PHONESAT 24 Sep 18:28:28 18:31:45 29° 73° (ENE) 18:35:03 437.300
XW-2C 24 Sep 18:30:30 18:34:11 47° 75° (ENE) 18:37:55 145.795 - 145.815
KKS-1 24 Sep 18:38:27 18:42:54 81° 285° (WNW) 18:47:21 437.445
LilacSat-2 24 Sep 18:43:54 18:47:46 79° 78° (ENE) 18:51:40 437.200
JUGNU 24 Sep 18:55:55 18:58:49 14° 170° (S) 19:01:43 437.505
CUBESAT XI-V 24 Sep 18:56:31 18:59:37 18° 293° (WNW) 19:02:41 437.345
KAITUO 1B 24 Sep 18:58:08 19:01:55 82° 77° (ENE) 19:05:44 145.475/437.950
STARS 24 Sep 18:59:46 19:04:09 67° 101° (ESE) 19:08:33 437.465
SEEDS 24 Sep 19:00:44 19:02:22 12° 66° (ENE) 19:03:59 437.485
BEESAT 3 24 Sep 19:14:24 19:17:39 25° 112° (ESE) 19:20:58 437.485
DOVE 4 24 Sep 19:17:33 19:19:21 12° 267° (W) 19:21:09 437.250
CUTE 1.7 + AOD 2 24 Sep 19:28:09 19:32:12 42° 74° (ENE) 19:36:16 437.475
XW-2D 24 Sep 19:31:20 19:34:31 25° 264° (W) 19:37:43 145.860 - 145.880
HO-68 24 Sep 19:39:24 19:46:29 73° 72° (ENE) 19:53:38 435.675
XW-2F 24 Sep 19:43:12 19:46:02 20° 265° (W) 19:48:52 145.980 - 146.000
XW-2B 24 Sep 19:44:17 19:46:59 18° 265° (W) 19:49:42 145.730 - 145.750
nSIGHT-1 24 Sep 19:45:20 19:47:42 19° 129° (SE) 19:50:05 .
CUTE-I 24 Sep 19:46:45 19:51:28 33° 263° (W) 19:56:14 437.470
Tancredo 1 24 Sep 19:48:44 19:51:12 33° 322° (NW) 19:53:42 437.200
XW-2A 24 Sep 19:58:50 20:01:57 35° 74° (ENE) 20:05:07 145.665 - 145.685
NUDT-PHONESAT 24 Sep 20:03:33 20:05:39 14° 266° (W) 20:07:44 437.300
CUBEBUG 2 24 Sep 20:08:44 20:12:55 69° 76° (ENE) 20:17:16 437.445
UWE-3 24 Sep 20:13:23 20:17:25 42° 73° (ENE) 20:21:35 435.000/436.395/437.385
NO-84 24 Sep 20:16:55 20:19:18 21° 38° (NE) 20:21:35 435.350 FM
AO-85 24 Sep 20:18:38 20:22:16 38° 114° (ESE) 20:25:54 145.980
SEEDS 24 Sep 20:33:26 20:37:33 50° 261° (W) 20:41:42 437.485
JUGNU 24 Sep 20:43:19 20:47:04 17° 180° (S) 20:50:49 437.505
ISS 24 Sep 20:43:21 20:46:37 86° 138° (SE) 20:49:53 437.550
STRAND 1 24 Sep 20:51:34 20:56:44 77° 103° (ESE) 21:01:53 437.568
BEESAT 3 24 Sep 20:51:49 20:55:07 24° 307° (NW) 20:58:27 437.485
AAUSAT CUBESAT 2 24 Sep 20:52:31 20:56:40 72° 260° (W) 21:00:49 437.432
Oscar 11 24 Sep 20:52:34 20:56:36 38° 73° (ENE) 21:00:38 .
AO-73 24 Sep 20:54:33 20:58:47 59° 75° (ENE) 21:03:09 145.935
ZACube-1 24 Sep 20:58:04 21:02:22 75° 76° (ENE) 21:06:48 437.345
BEESAT 2 24 Sep 21:01:02 21:04:58 63° 301° (WNW) 21:09:00 435.950
CUTE 1.7 + AOD 2 24 Sep 21:06:05 21:08:11 13° 268° (W) 21:10:17 437.475
nSIGHT-1 24 Sep 21:20:55 21:23:52 32° 324° (NW) 21:26:49 .
Max Valier Satellite 24 Sep 21:26:49 21:28:17 12° 68° (ENE) 21:29:45 145.860
HO-68 24 Sep 21:30:20 21:34:45 17° 268° (W) 21:39:13 435.675
UWE-3 24 Sep 21:51:54 21:54:05 14° 268° (W) 21:56:18 435.000/436.395/437.385
NO-84 24 Sep 21:54:23 21:56:31 19° 235° (SW) 21:58:36 435.350 FM
AO-85 24 Sep 22:00:28 22:02:48 15° 311° (NW) 22:05:09 145.980
FO-29 24 Sep 22:08:14 22:13:42 48° 101° (E) 22:19:46 435.910
DELFI C3 24 Sep 22:10:00 22:13:54 65° 77° (ENE) 22:17:48 145.870
SRMSAT 24 Sep 22:10:57 22:14:08 15° 172° (S) 22:17:19 437.500
ISS 24 Sep 22:21:51 22:23:28 13° 334° (NNW) 22:25:07 437.550
EO-88 24 Sep 22:22:25 22:25:56 47° 75° (ENE) 22:29:29 145.990 - 145.960
Oscar 11 24 Sep 22:30:15 22:32:50 15° 267° (W) 22:35:25 .
JUGNU 24 Sep 22:32:25 22:35:20 14° 190° (S) 22:38:13 437.505
STRAND 1 24 Sep 22:33:33 22:35:12 12° 298° (WNW) 22:36:52 437.568
UNISAT 6 24 Sep 22:36:57 22:41:00 28° 96° (E) 22:45:03 437.425
YUBILEINY 24 Sep 22:40:23 22:45:55 18° 67° (ENE) 22:51:26 435.215
Max Valier Satellite 24 Sep 22:58:17 23:01:43 36° 262° (W) 23:05:11 145.860
TIGRISAT 24 Sep 22:59:54 23:04:26 47° 99° (E) 23:08:57 435.000
PRISM 24 Sep 23:11:43 23:15:20 31° 98° (E) 23:18:57 437.425
ESTCUBE 1 24 Sep 23:12:53 23:16:04 19° 68° (ENE) 23:19:14 437.505/2401.250
LO-87 24 Sep 23:15:17 23:18:08 23° 72° (ENE) 23:21:00 145.935 - 145.965
SO-50 24 Sep 23:26:12 23:30:44 57° 58° (ENE) 23:35:19 436.795
FO-29 24 Sep 23:54:23 23:58:31 21° 292° (WNW) 00:02:58 435.910
SRMSAT 24 Sep 23:58:52 00:02:32 17° 182° (S) 00:06:12 437.500
UNISAT 6 25 Sep 00:13:45 00:17:32 25° 290° (WNW) 00:21:20 437.425
PCSat 25 Sep 00:24:25 00:29:47 58° 61° (ENE) 00:35:05 145.827
AIST 2D 25 Sep 00:30:49 00:34:18 61° 100° (E) 00:37:44 435.315
DUCHIFAT 1 25 Sep 00:31:04 00:33:37 16° 94° (E) 00:36:11 145.980
YUBILEINY 25 Sep 00:34:57 00:43:42 83° 265° (W) 00:52:29 435.215
TIGRISAT 25 Sep 00:37:54 00:40:41 16° 294° (WNW) 00:43:29 435.000
POLYITAN 1 25 Sep 00:45:50 00:49:40 31° 97° (E) 00:53:27 437.675
PRISM 25 Sep 00:47:42 00:50:20 17° 292° (WNW) 00:52:59 437.425
ESTCUBE 1 25 Sep 00:48:26 00:52:34 35° 262° (W) 00:56:44 437.505/2401.250
LO-87 25 Sep 00:49:20 00:51:30 15° 266° (W) 00:53:42 145.935 - 145.965
EO-79 25 Sep 00:49:39 00:53:33 34° 98° (E) 00:57:26 145.935-145.965
SPROUT 25 Sep 00:59:48 01:04:00 71° 76° (ENE) 01:08:14 437.525
QB50P2 25 Sep 01:03:31 01:07:45 57° 100° (E) 01:11:57 145.880/145.840
SO-50 25 Sep 01:08:36 01:10:42 13° 252° (WSW) 01:12:48 436.795
VELOX 1 25 Sep 01:10:57 01:15:19 69° 76° (ENE) 01:19:41 145.980
O/OREOS (USA 219) 25 Sep 01:31:00 01:31:38 10° 97° (E) 01:32:17 437.305
NANOSAT C BR1 25 Sep 01:37:32 01:41:47 69° 284° (WNW) 01:46:00 145.865
Oscar 19 25 Sep 01:42:08 01:44:20 13° 92° (E) 01:46:31 437.125/150
SRMSAT 25 Sep 01:48:37 01:50:56 12° 192° (SSW) 01:53:14 437.500
50 SAT 25 Sep 01:55:11 01:58:28 73° 76° (ENE) 02:01:45 437.505
DUCHIFAT 1 25 Sep 02:05:27 02:09:22 36° 288° (WNW) 02:13:16 145.980
UKube-1 25 Sep 02:05:36 02:09:40 43° 73° (ENE) 02:13:45 .
PCSat 25 Sep 02:09:27 02:12:36 16° 256° (WSW) 02:15:44 145.827
Tancredo 1 25 Sep 02:10:37 02:13:09 37° 38° (NE) 02:15:41 437.200
M-CUBED/EXP-1 PRIME 25 Sep 02:15:14 02:18:31 73° 107° (ESE) 02:21:44 437.505
DX 1 25 Sep 02:15:15 02:19:35 86° 255° (WSW) 02:23:56 434.975-435.025
nSIGHT-1 25 Sep 02:15:35 02:16:34 11° 24° (NNE) 02:17:33 .
POLYITAN 1 25 Sep 02:22:07 02:25:11 19° 291° (WNW) 02:28:14 437.675
EO-79 25 Sep 02:26:11 02:29:01 17° 292° (WNW) 02:31:50 145.935-145.965
BUGSAT 1 25 Sep 02:34:44 02:38:57 68° 284° (WNW) 02:43:09 437.445
YUBILEINY 25 Sep 02:35:33 02:39:03 13° 283° (WNW) 02:42:34 435.215
QB50P2 25 Sep 02:41:50 02:43:00 11° 295° (WNW) 02:44:08 145.880/145.840
ITUPSAT 1 25 Sep 02:55:14 02:58:26 18° 66° (ENE) 03:01:39 437.325
O/OREOS (USA 219) 25 Sep 03:06:00 03:10:25 58° 292° (WNW) 03:14:55 437.305
ISS 25 Sep 03:13:51 03:16:42 26° 34° (NE) 03:19:33 437.550
Gurwin Techsat 1B 25 Sep 03:15:23 03:20:44 79° 103° (ESE) 03:26:02 435.225
Oscar 19 25 Sep 03:18:55 03:24:02 63° 286° (WNW) 03:29:04 437.125/150
RS-15 25 Sep 03:27:11 03:30:45 12° 95° (E) 03:34:18 29.354- 29.394
BEESAT 25 Sep 03:29:24 03:33:52 42° 72° (ENE) 03:38:22 436.000
UKube-1 25 Sep 03:43:48 03:45:51 13° 267° (W) 03:47:56 .
Tancredo 1 25 Sep 03:46:45 03:47:18 10° 232° (SW) 03:47:51 437.200
AO-7 25 Sep 03:47:05 03:53:26 24° 96° (E) 03:59:45 .
MOZHAYETS 4 25 Sep 03:47:32 03:52:06 64° 75° (ENE) 03:56:42
nSIGHT-1 25 Sep 03:50:09 03:53:24 69° 40° (NE) 03:56:38 .
CUBESAT XI-V 25 Sep 04:18:35 04:22:33 27° 70° (ENE) 04:26:30 437.345
ITAMSAT 1 25 Sep 04:27:13 04:31:56 34° 98° (E) 04:36:37 435.822/435.867
ITUPSAT 1 25 Sep 04:31:25 04:35:54 41° 261° (W) 04:40:26 437.325
ISS 25 Sep 04:50:20 04:53:07 26° 229° (SW) 04:55:54 437.550
AO-85 25 Sep 04:52:11 04:55:21 18° 51° (NE) 04:58:39 145.980
Gurwin Techsat 1B 25 Sep 04:58:03 04:59:57 12° 298° (WNW) 05:01:49 435.225
BEESAT 25 Sep 05:08:45 05:11:47 17° 266° (W) 05:14:50 436.000
BEESAT 3 25 Sep 05:10:20 05:14:18 73° 61° (ENE) 05:18:10 437.485
BEESAT 2 25 Sep 05:21:37 05:25:08 28° 54° (NE) 05:28:36 435.950
RS-15 25 Sep 05:28:49 05:40:49 67° 113° (ESE) 05:52:58 29.354- 29.394
KKS-1 25 Sep 05:33:09 05:37:31 62° 74° (ENE) 05:41:53 437.445
AO-7 25 Sep 05:38:28 05:46:38 65° 291° (WNW) 05:54:47 .
DOVE 4 25 Sep 05:39:33 05:42:06 15° 94° (E) 05:44:41 437.250
STARS 25 Sep 05:53:16 05:57:18 39° 72° (ENE) 06:01:22 437.465
CUBESAT XI-V 25 Sep 05:55:56 05:59:49 25° 264° (W) 06:03:42 437.345
ITAMSAT 1 25 Sep 06:06:58 06:11:12 26° 292° (WNW) 06:15:24 435.822/435.867
LilacSat-2 25 Sep 06:22:57 06:23:27 10° 92° (E) 06:23:58 437.200
CUTE-I 25 Sep 06:28:35 06:30:57 13° 92° (E) 06:33:18 437.470
AO-85 25 Sep 06:31:31 06:35:55 47° 244° (WSW) 06:40:38 145.980
BEESAT 2 25 Sep 06:59:39 07:02:41 21° 249° (WSW) 07:05:41 435.950
XW-2D 25 Sep 07:06:06 07:09:40 38° 98° (E) 07:13:11 145.860 - 145.880
HO-68 25 Sep 07:12:45 07:16:41 15° 92° (E) 07:20:36 435.675
DOVE 4 25 Sep 07:15:52 07:19:52 39° 286° (WNW) 07:24:02 437.250
XW-2F 25 Sep 07:17:03 07:20:43 48° 99° (E) 07:24:21 145.980 - 146.000
XW-2B 25 Sep 07:18:23 07:22:07 54° 100° (E) 07:25:48 145.730 - 145.750
STARS 25 Sep 07:31:16 07:33:46 15° 266° (W) 07:36:17 437.465
NUDT-PHONESAT 25 Sep 07:34:43 07:38:25 63° 100° (E) 07:42:04 437.300
AO-7 25 Sep 07:34:51 07:37:48 12° 310° (NW) 07:40:45 .
XW-2C 25 Sep 07:39:48 07:43:36 73° 283° (WNW) 07:47:20 145.795 - 145.815
RS-15 25 Sep 07:42:58 07:54:06 38° 315° (NW) 08:05:19 29.354- 29.394
LilacSat-2 25 Sep 07:54:18 07:57:55 42° 286° (WNW) 08:01:30 437.200
CUBEBUG 2 25 Sep 08:02:57 08:06:25 20° 94° (E) 08:09:54 437.445
STRAND 1 25 Sep 08:04:18 08:09:23 80° 75° (ENE) 08:14:30 437.568
CUTE-I 25 Sep 08:06:05 08:11:22 66° 286° (WNW) 08:16:39 437.470
KAITUO 1B 25 Sep 08:06:06 08:09:39 43° 286° (WNW) 08:13:09 145.475/437.950
UWE-3 25 Sep 08:07:43 08:09:32 12° 91° (E) 08:11:21 435.000/436.395/437.385
SEEDS 25 Sep 08:20:17 08:24:00 31° 97° (E) 08:27:42 437.485
FO-29 25 Sep 08:21:27 08:23:42 13° 64° (ENE) 08:25:54 435.910
AAUSAT CUBESAT 2 25 Sep 08:38:11 08:41:19 21° 95° (E) 08:44:25 437.432
XW-2D 25 Sep 08:41:57 08:43:26 12° 293° (WNW) 08:44:55 145.860 - 145.880
AO-73 25 Sep 08:46:45 08:49:25 15° 92° (E) 08:52:05 145.935
ZACube-1 25 Sep 08:50:09 08:53:27 19° 94° (E) 08:56:42 437.345
CUTE 1.7 + AOD 2 25 Sep 08:51:23 08:55:33 61° 284° (WNW) 08:59:41 437.475
XW-2A 25 Sep 08:55:32 08:58:55 58° 100° (E) 09:02:16 145.665 - 145.685
HO-68 25 Sep 08:57:50 09:05:03 81° 287° (WNW) 09:12:14 435.675
UNISAT 6 25 Sep 09:33:47 09:36:33 17° 67° (ENE) 09:39:21 437.425
CUBEBUG 2 25 Sep 09:38:44 09:43:03 35° 288° (WNW) 09:47:21 437.445
UWE-3 25 Sep 09:41:41 09:46:16 56° 285° (WNW) 09:50:50 435.000/436.395/437.385
TIGRISAT 25 Sep 09:55:56 09:59:34 27° 70° (ENE) 10:03:17 435.000
SEEDS 25 Sep 09:56:37 09:59:25 18° 291° (WNW) 10:02:13 437.485
PRISM 25 Sep 09:58:58 10:01:25 16° 67° (ENE) 10:03:51 437.425
FO-29 25 Sep 10:02:32 10:08:19 71° 258° (WSW) 10:13:36 435.910
RS-15 25 Sep 10:05:19 10:11:47 15° 347° (NNW) 10:18:12 29.354- 29.394
AAUSAT CUBESAT 2 25 Sep 10:13:19 10:16:41 25° 289° (WNW) 10:20:01 437.432
Oscar 11 25 Sep 10:18:19 10:22:37 66° 284° (WNW) 10:26:53 .
AO-73 25 Sep 10:21:29 10:25:48 42° 287° (WNW) 10:30:03 145.935
ZACube-1 25 Sep 10:25:36 10:29:44 34° 288° (WNW) 10:33:50 437.345
Max Valier Satellite 25 Sep 10:31:16 10:34:15 23° 96° (E) 10:37:14 145.860
HO-68 25 Sep 10:48:23 10:51:39 14° 304° (NW) 10:54:55 435.675
AIST 2D 25 Sep 11:03:19 11:05:13 14° 69° (ENE) 11:07:07 435.315
UNISAT 6 25 Sep 11:08:53 11:12:54 37° 262° (W) 11:17:02 437.425
DELFI C3 25 Sep 11:24:21 11:28:06 47° 285° (WNW) 11:31:51 145.870
EO-88 25 Sep 11:27:13 11:30:53 82° 280° (W) 11:34:29 145.990 - 145.960
NO-84 25 Sep 11:31:02 11:32:55 13° 123° (ESE) 11:34:45 435.350 FM
PRISM 25 Sep 11:32:36 11:36:22 35° 262° (W) 11:40:07 437.425
TIGRISAT 25 Sep 11:32:49 11:36:11 22° 265° (W) 11:39:38 435.000
POLYITAN 1 25 Sep 11:36:21 11:38:56 16° 67° (ENE) 11:41:33 437.675
YUBILEINY 25 Sep 11:38:08 11:44:24 23° 82° (E) 11:50:39 435.215
EO-79 25 Sep 11:39:51 11:42:39 18° 68° (ENE) 11:45:28 145.935-145.965
O/OREOS (USA 219) 25 Sep 11:41:14 11:43:46 14° 58° (ENE) 11:46:17 437.305
QB50P2 25 Sep 11:53:15 11:56:51 28° 71° (ENE) 12:00:27 145.880/145.840
Max Valier Satellite 25 Sep 12:05:15 12:07:54 19° 290° (WNW) 12:10:33 145.860
LO-87 25 Sep 12:17:24 12:20:53 45° 99° (E) 12:24:21 145.935 - 145.965
RS-15 25 Sep 12:23:19 12:31:29 20° 26° (NNE) 12:39:22 29.354- 29.394
NANOSAT C BR1 25 Sep 12:26:08 12:30:12 55° 75° (ENE) 12:34:20 145.865
AIST 2D 25 Sep 12:35:03 12:38:07 27° 263° (W) 12:41:13 435.315
ESTCUBE 1 25 Sep 12:43:20 12:47:47 59° 100° (E) 12:52:11 437.505/2401.250
SPROUT 25 Sep 12:49:39 12:52:08 15° 93° (E) 12:54:36 437.525
DUCHIFAT 1 25 Sep 12:53:23 12:57:33 77° 258° (WSW) 13:01:45 145.980
Oscar 19 25 Sep 12:55:58 12:58:53 15° 64° (ENE) 13:01:49 437.125/150
M-CUBED/EXP-1 PRIME 25 Sep 12:57:14 13:01:27 57° 70° (ENE) 13:05:23 437.505
Gurwin Techsat 1B 25 Sep 12:58:47 12:59:32 10° 61° (ENE) 13:00:17 435.225
VELOX 1 25 Sep 13:05:03 13:07:48 16° 94° (E) 13:10:30 145.980
NO-84 25 Sep 13:06:04 13:10:02 60° 315° (NW) 13:13:42 435.350 FM
POLYITAN 1 25 Sep 13:10:31 13:14:23 36° 262° (W) 13:18:18 437.675
EO-79 25 Sep 13:14:22 13:18:08 32° 263° (W) 13:21:56 145.935-145.965
O/OREOS (USA 219) 25 Sep 13:19:00 13:23:28 51° 254° (WSW) 13:27:54 437.305
BUGSAT 1 25 Sep 13:21:08 13:25:01 51° 74° (ENE) 13:28:58 437.445
PCSat 25 Sep 13:24:26 13:25:26 10° 102° (ESE) 13:26:27 145.827
QB50P2 25 Sep 13:29:30 13:32:35 20° 265° (W) 13:35:42 145.880/145.840
YUBILEINY 25 Sep 13:31:44 13:40:21 66° 279° (W) 13:49:00 435.215
SO-50 25 Sep 13:37:42 13:41:49 36° 114° (ESE) 13:45:55 436.795
DX 1 25 Sep 14:07:08 14:10:20 20° 95° (E) 14:13:30 434.975-435.025
ESTCUBE 1 25 Sep 14:22:33 14:24:01 11° 296° (WNW) 14:25:29 437.505/2401.250
SPROUT 25 Sep 14:24:09 14:28:08 38° 287° (WNW) 14:32:06 437.525
Oscar 19 25 Sep 14:32:32 14:37:39 59° 259° (W) 14:42:48 437.125/150
Gurwin Techsat 1B 25 Sep 14:33:21 14:38:40 89° 256° (WSW) 14:44:00 435.225
M-CUBED/EXP-1 PRIME 25 Sep 14:35:26 14:35:58 10° 262° (W) 14:36:31 437.505
RS-15 25 Sep 14:35:30 14:47:18 60° 54° (NE) 14:58:24 29.354- 29.394
VELOX 1 25 Sep 14:40:16 14:44:19 37° 288° (WNW) 14:48:22 145.980
AO-7 25 Sep 14:43:09 14:49:48 28° 59° (ENE) 14:56:25 .
50 SAT 25 Sep 14:50:22 14:53:41 74° 280° (W) 14:56:58 437.505
PCSat 25 Sep 15:02:38 15:08:03 81° 296° (WNW) 15:13:30 145.827
SO-50 25 Sep 15:18:52 15:22:20 21° 310° (NW) 15:25:49 436.795
UKube-1 25 Sep 15:31:01 15:35:17 65° 285° (WNW) 15:39:32 .
BEESAT 25 Sep 15:34:05 15:36:25 13° 93° (E) 15:38:45 436.000
ITAMSAT 1 25 Sep 15:42:13 15:46:58 38° 70° (ENE) 15:51:44 435.822/435.867
DX 1 25 Sep 15:42:43 15:46:29 30° 289° (WNW) 15:50:15 434.975-435.025
MOZHAYETS 4 25 Sep 15:46:30 15:49:46 19° 94° (E) 15:53:01
AO-7 25 Sep 16:33:43 16:41:56 63° 256° (WSW) 16:50:11 .
ITUPSAT 1 25 Sep 16:34:27 16:39:14 62° 101° (ESE) 16:43:59 437.325
DOVE 4 25 Sep 16:44:04 16:45:11 11° 66° (ENE) 16:46:16 437.250
RS-15 25 Sep 16:48:52 16:59:02 37° 255° (WSW) 17:08:48 29.354- 29.394
PCSat 25 Sep 16:50:24 16:52:17 12° 315° (NW) 16:54:10 145.827
BEESAT 25 Sep 17:09:47 17:14:26 53° 287° (WNW) 17:19:05 436.000
ITAMSAT 1 25 Sep 17:22:37 17:26:30 21° 265° (W) 17:30:24 435.822/435.867
MOZHAYETS 4 25 Sep 17:22:46 17:26:59 35° 288° (WNW) 17:31:09
KKS-1 25 Sep 17:28:22 17:30:55 15° 94° (E) 17:33:26 437.445
XW-2D 25 Sep 17:45:48 17:47:36 13° 68° (ENE) 17:49:25 145.860 - 145.880
CUTE-I 25 Sep 17:47:13 17:50:34 17° 64° (ENE) 17:53:55 437.470
CUBESAT XI-V 25 Sep 17:54:26 17:59:03 81° 285° (WNW) 18:03:38 437.345
XW-2F 25 Sep 17:55:49 17:58:10 16° 69° (ENE) 18:00:31 145.980 - 146.000
XW-2B 25 Sep 17:57:22 17:59:57 17° 69° (ENE) 18:02:32 145.730 - 145.750
NUDT-PHONESAT 25 Sep 18:11:29 18:14:05 18° 70° (ENE) 18:16:41 437.300
ITUPSAT 1 25 Sep 18:14:26 18:16:28 13° 296° (WNW) 18:18:31 437.325
XW-2C 25 Sep 18:17:52 18:21:18 32° 73° (ENE) 18:24:45 145.795 - 145.815
